Overview Statistics Trail Chart Weather Telemetry Raw packets
 

This is the latest recevied weather packets stored in our database for station/object WS4FSC-7. If no packets are shown the sender has not sent any weather packets the latest 10 day(s).

<< 13 14 15 16 17 18 19 >>
Time Temp. Humidity Pressure Rain* Wind** Luminosity Snow
1788465411 32.78° C 69% 1012 hPa - - 612 W/m² -
1788465051 32.78° C 68% 1012 hPa - - 659 W/m² -
1788464691 32.22° C 69% 1012 hPa - - 651 W/m² -
1788464510 32.78° C 69% 1012 hPa - - 674 W/m² -
1788464330 32.78° C 69% 1012 hPa - - 694 W/m² -
1788464150 32.78° C 71% 1012 hPa - - 678 W/m² -
1788463071 32.22° C 71% 1012 hPa - - 723 W/m² -
1788462171 32.22° C 69% 1012 hPa - - 755 W/m² -
1788461811 32.78° C 68% 1012 hPa - - 776 W/m² -
1788461630 32.78° C 69% 1012 hPa - - 791 W/m² -
1788460920 32.22° C 69% 1012 hPa - - 797 W/m² -
1788460731 32.22° C 68% 1012 hPa - - 673 W/m² -
1788459651 32.22° C 71% 1012 hPa - - 874 W/m² -
1788459291 32.22° C 71% 1012 hPa - - 852 W/m² -
1788458932 32.22° C 73% 1012 hPa - - 846 W/m² -
1788458751 32.22° C 71% 1012 hPa - - 876 W/m² -
1788458571 32.22° C 72% 1012 hPa - - 875 W/m² -
1788457858 32.22° C 71% 1012 hPa - - 873 W/m² -
1788457491 32.22° C 71% 1013 hPa - - 867 W/m² -
1788457310 32.22° C 72% 1013 hPa - - 899 W/m² -
1788456411 32.22° C 69% 1013 hPa - - 913 W/m² -
1788456051 32.78° C 69% 1013 hPa - - 715 W/m² -
1788455758 32.22° C 71% 1013 hPa - - 804 W/m² -
1788455691 32.22° C 71% 1013 hPa - - 804 W/m² -
1788455151 32.22° C 72% 1013 hPa - - 205 W/m² -

* Rain since midnight (hover to see other rain measurements)
** Current wind speed in m/s (hover to see current wind gust speed)